www.pogodaiklimat.ru

Погода и климат >> Архив погоды >> Украина >> Умань


ПОГОДА в Умани

  • Прогноз погоды в Умани
  • Монитор погоды в Умани

АРХИВ ПОГОДЫ в Умани

Время (UTC), дата Ветер
(напр.,м/с)
 
Видим.   Явления Облачность Т
(С)
Тd
(С)
f
(%)
Тe
(С)
Тes
(С)
Комфортность P
(гПа)
Po
(гПа)
Тmin
(С)
Tmax
(С)
R
(мм)
R24
(мм)
S
(см)
15 12.08 штиль 0 20 км ясно +30.7 +13.6 35 +32 +36 жарко 1016.0 991.9
18 12.08 штиль 0 10 км 6/0
[Ci fib]
+23.5 +16.3 64 +27 +27 душно 1016.6 992.0 +30.9
21 12.08 штиль 0 н/о ясно +20.0 +16.2 79 +22 +22 комфорт 1016.6 991.6
00 13.08 штиль 0 н/о ясно +18.7 +15.7 83 +20 +20 1016.3 991.3
03 13.08 штиль 0 10 км ясно +18.6 +15.2 81 +19 +19 1015.4 990.4
06 13.08 Ю 2 20 км ясно +25.2 +16.8 60 +29 +35 душно 1014.8 990.3 +18.4
09 13.08 Ю 2 20 км ясно +32.3 +16.3 38 +35 +49 очень
душно
1013.8 989.9
12 13.08 ЮЗ 4 20 км ясно +34.4 +15.9 33 +37 +45 очень
душно
1012.3 988.6
15 13.08 Ю 3 20 км ясно +33.4 +15.9 35 +36 +38 очень
душно
1011.7 987.9
18 13.08 штиль 0 10 км ясно +27.5 +17.2 53 +31 +31 душно 1012.8 988.5 +34.8
21 13.08 Ю 1 н/о ясно +25.1 +18.1 65 +29 +29 душно 1013.6 989.1
00 14.08 штиль 0 н/о ясно +22.3 +19.0 82 +28 +28 душно 1013.8 989.1
03 14.08 штиль 0 10 км ясно +19.5 +17.2 87 +22 +22 комфорт 1013.8 988.8
06 14.08 ЮВ 3 20 км ясно +25.3 +12.7 46 +27 +32 жарко 1013.5 989.0 +19.3
09 14.08 Ю 3 20 км ясно +30.1 +12.9 35 +31 +43 жарко 1011.7 987.6
12 14.08 В 5 20 км ясно +32.1 +13.1 31 +33 +39 жарко 1010.0 986.1
15 14.08 Ю 5 20 км ясно +31.7 +9.8 26 +31 +32 жарко 1008.2 984.3
18 14.08 штиль 0 20 км ясно +23.1 +12.4 51 +26 +26 жарко 1008.2 983.6 +32.4
21 14.08 штиль 0 н/о ясно +18.9 +12.8 68 +20 +20 1009.1 984.2
00 15.08 штиль 0 н/о ясно +15.9 +13.4 85 +16 +16 1008.9 983.7
03 15.08 С 4 10 км 10/0
[Ci fib]
+18.7 +16.9 89 +20 +20 1009.2 984.3
06 15.08 СЗ 3 10 км 8/8 600 м
[Sc]
+20.9 +17.4 80 +25 +26 комфорт 1009.5 984.7 +15.0
09 15.08 З 5 10 км 10/10 600 м
[Sc]
+18.7 +15.7 83 +19 +19 1010.5 985.6
12 15.08 СЗ 3 10 км 10/10 600 м
[Sc]
+18.9 +15.1 79 +20 +20 1010.6 985.7
15 15.08 З 4 10 км 10/10 600 м
[Sc]
+18.9 +14.4 75 +20 +20 1010.4 985.5
18 15.08 СЗ 4 10 км 10/8 600 м
[Sc Ac und]
+18.3 +13.3 73 +19 +19 1011.3 986.3 +20.9
21 15.08 СЗ 4 н/о 10/10 600 м
[Sc]
+16.3 +12.3 77 +16 +16 1012.3 987.1
00 16.08 СЗ 3 н/о 10/0
[Ac und]
+15.7 +12.6 82 +15 +15 1011.9 986.6
03 16.08 З 2 10 км 10/4 1000 м
[Sc Ac und]
+15.2 +13.4 89 +15 +15 1011.9 986.6
06 16.08 СЗ 4 10 км 10/0
[Ac trans]
+15.1 +12.9 87 +14 +15 1012.2 986.9 +14.8
09 16.08 СЗ 5 10 км 10/10 1000 м
[Sc]
+19.3 +12.7 66 +20 +20 1011.7 986.8
12 16.08 СЗ 5 10 км 10/10 1000 м
[Sc]
+20.0 +12.0 60 +22 +22 комфорт 1011.7 986.9
15 16.08 С 6 10 км 10/10 1000 м
[Sc]
+19.5 +10.9 58 +20 +20 1012.3 987.4
18 16.08 штиль 0 10 км 6/6 1000 м
[Sc]
+16.1 +11.7 75 +16 +16 1013.1 987.8 +21.0
21 16.08 СЗ 2 н/о ясно +13.7 +10.0 78 +13 +13 1013.9 988.3
00 17.08 СЗ 2 н/о ясно +11.5 +9.3 86 +10 +10 1014.0 988.2
03 17.08 СЗ 1 10 км 4/0
[Ac trans]
+10.9 +8.9 87 +11 +11 1013.3 987.5
06 17.08 СЗ 2 10 км 9/9 600 м
[Sc]
+14.5 +10.3 76 +14 +15 1013.3 987.8 +10.9
09 17.08 СЗ 5 20 км 6/4 1000 м
[Cu med, cong Ac trans]
+20.7 +9.5 49 +22 +26 комфорт 1012.5 987.5
12 17.08 С 5 20 км 10/10 600 м
[Sc]
+20.9 +10.3 51 +23 +23 комфорт 1012.1 987.3
15 17.08 З 2 20 км 10/10 600 м
[Sc]
+20.7 +11.2 54 +23 +23 комфорт 1012.5 987.6
18 17.08 штиль 0 10 км 9/9 1000 м
[Sc]
+18.3 +13.5 74 +19 +19 1013.4 988.3 +21.0
21 17.08 штиль 0 н/о ясно +13.1 +11.2 88 +13 +13 1013.8 988.2
00 18.08 штиль 0 н/о дымка ясно +11.1 +9.9 92 +10 +10 1014.7 988.9
03 18.08 З 1 4000 м дымка ясно +11.9 +10.5 91 +12 +12 1014.8 989.0
06 18.08 СЗ 3 10 км ясно +17.5 +11.7 69 +18 +22 1014.6 989.4 +11.0
09 18.08 СЗ 5 20 км 4/4 1000 м
[Cu hum]
+23.0 +8.1 38 +24 +28 комфорт 1014.7 989.9
12 18.08 СЗ 5 20 км 3/3 1000 м
[Cu hum]
+25.3 +8.1 33 +25 +30 комфорт 1014.1 989.6
15 18.08 СЗ 3 20 км 3/3 1000 м
[Sc]
+25.5 +8.8 35 +26 +27 жарко 1014.2 989.7
18 18.08 штиль 0 10 км ясно +19.1 +11.4 61 +20 +20 1015.8 990.8 +25.8
21 18.08 штиль 0 н/о ясно +14.7 +11.8 83 +14 +14 1017.0 991.5
00 19.08 штиль 0 н/о ясно +12.3 +10.4 88 +12 +12 1018.1 992.3
03 19.08 штиль 0 10 км ясно +10.9 +8.9 87 +10 +10 1019.1 993.1
06 19.08 штиль 0 20 км ясно +22.0 +13.5 59 +25 +32 комфорт 1018.8 993.9 +10.9
09 19.08 С 3 20 км 4/4 1000 м
[Cu hum]
+26.1 +11.8 41 +27 +34 жарко 1018.7 994.1

 

Местоположение метеостанции Умань (Черкасская область, Украина): широта 48.77 долгота 30.23 высота над уровнем моря 216 м.

В архиве по умолчанию представлена погода в Умани за последнюю неделю. Архивные данные за месяц целиком и за предыдущие месяцы, начиная с января 2011 года, Вы можете получить, выбрав интересующий диапазон дат из раскрывающегося списка и нажав кнопку "Ввод!".


*Определитесь, кто Вы:
робот инопланетянин человек

Внимание! Время в таблицах - всемирное. Для получения местного времени необходимо прибавить поправку, которая равна 2 ч.

Смотрите также архив погоды в соседних городах и на ближайших метеорологических станциях:

Погода в Гайвороне (Кировоградская область, Украина) (54 км)
Погода в Жашкове (Черкасская область, Украина) (54 км)
Погода в Звенигородке (Черкасская область, Украина) (60 км)
Погода в Гайсине (Винницкая область, Украина) (61 км)
Погода в Первомайске (Николаевская область, Украина) (92 км)
Погода в Любашевке (Одесская область, Украина) (102 км)
Погода в Новомиргороде (Кировоградская область, Украина) (103 км)
Погода в Помошной (Кировоградская область, Украина) (105 км)
Погода в Белой Церкви (Киевская область, Украина) (109 км)
Погода в Ротмистровке (Черкасская область, Украина) (115 км)

Пояснения к столбцам:

Ветер - указаны скорость ветра в м/с - средняя за 10 мин, порывы в срок и между сроками (в фигурных скобках) и направление, откуда дует ветер: С - северный, СВ - северо-восточный, В - восточный, ЮВ - юго-восточный, Ю - южный, ЮЗ - юго-западный, З - западный, СЗ - северо-западный.
Видимость - горизонтальная дальность видимости в метрах или километрах. При видимости от 1 до 10 км при отсутствии осадков обычно наблюдается дымка, при ухудшении видимости до 1 км и менее - туман. В сухую погоду видимость может ухудшаться дымом, пылью или мглою.
Явления - указаны атмосферные явления, наблюдавшиеся в срок или в последний час перед сроком; фигурными скобками обозначены явления, наблюдавшиеся между сроками (за 1-3 часа до срока); квадратными скобками обозначены град или гололедные отложения с указанием их диаметра в мм.
Облачность - указаны через наклонную черту общая и нижняя облачность в баллах и высота нижней границы облаков в метрах; квадратными скобками обозначены формы облаков: Ci - перистые, Cs - перисто-слоистые, Cc - перисто-кучевые, Ac - высококучевые, As - высокослоистые, Sc - слоисто-кучевые, Ns - слоисто-дождевые, Cu - кучевые, Cb - кучево-дождевые. Подробнее классификацию облаков см. в Атласе облаков (PDF).
T - Температура воздуха - температура, измеренная на высоте 2 м над землей.
Td - Температура точки росы - температура, при понижении до которой содержащийся в воздухе водяной пар достигнет насыщения.
f - Относительная влажность воздуха - влажноcть воздуха, измеренная на высоте 2 м над землей.
Te - Эффективная температура - температура, которую ощущает одетый по сезону человек в тени. Характеристика душности погоды. При расчете учитывается влияние влажности воздуха и скорости ветра на теплоощущения человека.
Tes - Эффективная температура на солнце - температура, которую ощущает человек, с поправкой на солнечный нагрев. Характеристика знойности погоды. Зависит от высоты солнца над горизонтом, облачности и скорости ветра. Ночью, в пасмурную погоду, а также при ветре 12 м/с и более поправка равна нулю.
P - Атмосферное давление - приведенное к уровню моря атмосферное давление.
Po - Атмосферное давление - измеренное на уровне метеостанции атмосферное давление.
Tmin - Минимальная температура - минимум температуры воздуха на высоте 2 м над землей.
Tmax - Максимальная температура - максимум температуры воздуха на высоте 2 м над землей.
R - Количество осадков - Количество выпавших осадков за период времени, мм. При наведении курсора мыши на число - период времени, за который выпало указанное количество осадков.
R24 - Количество осадков - Количество выпавших осадков за 24 часа, мм.
S - Снежный покров - Высота снежного покрова, см. При наведении курсора мыши на число - состояние снежного покрова и степень покрытия местности в баллах.